Location: Ailingen
(47.6833°N, 9.5000°E)
Time: 12:59:07
(UTC+00:00)

USA 281 - Pass Details

Date: 18 November 2025
Orbit: 1079 x 1080 km, 106.0° (Epoch: 08 December)

Event Time Altitude Azimuth Distance (km) Brightness Sun altitude
Exits shadow 18:11:31 49° 64° (ENE) 1,363 3.3 -24.9°
Maximum altitude 18:11:51 50° 55° (NE) 1,357 3.3 -25.0°
Drops below altitude 10° 18:18:08 10° 343° (NNW) 2,930 5.7 -26.0°
Sets 18:20:43 0° 338° (NNW) 3,889 6.4 -26.5°
